Flag for Poland Weather past 2 weeks in Opole, Poland

61 °F

Partly sunny.

Feels Like: 61 °F
Forecast: 44 / 59 °F
Wind: 14 mph from East

Location: Wroclaw Ii

Current Time: Oct 7, 2015 at 6:17:38 PM

Latest Report: Oct 7, 2015 at 5:30 PM

Visibility: N/A

Pressure: 30.01 "Hg

Humidity: 55%

Dew point: 45 °F

Location of OpoleLocation

Historic Weather in Opole — Graph


Opole temperature yesterday

Maximum temperature yesterday: 70 °F (at 2:30 PM)
Minimum temperature yesterday: 45 °F (at 2:30 AM)
Average temperature yesterday: 57 °F

Past Weeks' High & Low Weather Summary

High75 °F (Oct 4, 3:00 PM)94% (Sep 25, 1:00 PM)30.63 "Hg (Sep 25, 1:00 PM)
Low32 °F (Oct 1, 6:00 AM)29% (Oct 2, 3:00 PM)29.71 "Hg (Sep 23, 2:30 AM)
Average57 °F65%30.21 "Hg
* Reported Sep 22 5:00 PM — Oct 7 5:00 PM, Opole, Weather by CustomWeather, © 2015

Note: Actual official high and low records may vary slightly from our data, if they occured in-between our weather recording intervals... More about our weather records


Opole weather history for previous 24 hours

Time TempWeatherWind HumidityBarometerVisibility
5:00 PM
Wed, Oct 7
63 °FPartly sunny.14 mph56%30.01 "HgN/A
4:30 PM63 °FPartly sunny.12 mph59%30.01 "HgN/A
4:00 PM63 °FPartly sunny.14 mph59%30.01 "HgN/A
3:30 PM63 °FPartly sunny.13 mph59%30.01 "HgN/A
3:00 PM63 °FPartly sunny.13 mph64%30.01 "HgN/A
2:30 PM63 °FPartly sunny.14 mph64%30.01 "HgN/A
2:00 PM61 °FPartly sunny.14 mph68%30.01 "HgN/A
1:30 PM61 °FPartly sunny.12 mph68%30.01 "HgN/A
1:00 PM61 °FPartly sunny.12 mph72%30.01 "HgN/A
12:30 PM61 °FBroken clouds.14 mph72%30.01 "HgN/A
12:00 PM59 °FBroken clouds.14 mph77%30.01 "Hg5 mi
11:30 AM59 °FBroken clouds.14 mph82%29.98 "Hg4 mi
11:00 AM57 °FFog.14 mph88%29.98 "Hg3 mi
10:30 AM59 °FBroken clouds.13 mph82%29.98 "Hg4 mi
10:00 AM59 °FFog.13 mph82%29.98 "Hg3 mi
9:30 AM59 °FFog.12 mph82%29.98 "Hg3 mi
9:00 AM57 °FFog.12 mph88%29.98 "Hg2 mi
8:30 AM57 °FFog.12 mph88%29.95 "Hg2 mi
8:00 AM57 °FFog.10 mph88%29.95 "Hg2 mi
7:30 AM55 °FFog.12 mph94%29.95 "Hg2 mi
7:00 AM55 °FFog.10 mph88%29.95 "Hg2 mi
6:30 AM55 °FFog.10 mph88%29.95 "Hg3 mi
6:00 AM55 °FPassing clouds.12 mph88%29.95 "Hg4 mi
5:30 AM55 °FFog.12 mph88%29.92 "Hg3 mi
5:00 AM55 °FFog.13 mph88%29.92 "Hg3 mi
4:30 AM54 °FFog.14 mph88%29.92 "Hg3 mi
4:00 AM54 °FFog.13 mph88%29.92 "Hg3 mi
3:30 AM55 °FClear.12 mph88%29.92 "Hg4 mi
3:00 AM55 °FClear.10 mph88%29.92 "Hg4 mi
2:30 AM57 °FClear.12 mph82%29.92 "Hg5 mi
2:00 AM57 °FClear.10 mph88%29.92 "Hg5 mi
1:30 AM57 °FClear.12 mph82%29.92 "Hg10 mi
1:00 AM57 °FClear.9 mph82%29.92 "Hg10 mi
12:30 AM57 °FClear.10 mph82%29.92 "Hg10 mi
12:00 AM59 °FClear.9 mph77%29.92 "Hg10 mi
11:30 PM
Tue, Oct 6
59 °FClear.10 mph77%29.92 "Hg10 mi
11:00 PM59 °FClear.10 mph77%29.89 "Hg10 mi
10:30 PM59 °FClear.9 mph77%29.89 "Hg10 mi
10:00 PM59 °FClear.10 mph77%29.89 "Hg10 mi
9:30 PM61 °FClear.12 mph72%29.89 "Hg10 mi
9:00 PM63 °FClear.12 mph68%29.89 "Hg10 mi
8:30 PM63 °FClear.12 mph68%29.89 "Hg10 mi
8:00 PM63 °FClear.12 mph68%29.89 "Hg10 mi
7:30 PM64 °FClear.12 mph64%29.89 "Hg10 mi
7:00 PM64 °FSunny.12 mph64%29.89 "Hg10 mi
6:30 PM64 °FSunny.9 mph64%29.86 "Hg10 mi
6:00 PM66 °FSunny.10 mph60%29.86 "Hg10 mi
Weather by CustomWeather, © 2015

See weather overviewHow to use our weather pages